Location: Antin
(43.3330°N, 0.2804°E)
Time: 22:53:34
(UTC+00:00)

SME Rocket - Pass Details

Date: 03 June 2022
Orbit: 551 x 2650 km, 99.9° (Epoch: 01 July)

Event Time Altitude Azimuth Distance (km) Brightness Sun altitude
Exits shadow 00:34:00 24° 112° (ESE) 1,472 4.8 -23.8°
Maximum altitude 00:36:13 37° 61° (ENE) 1,211 4.8 -23.8°
Drops below altitude 10° 00:41:45 10° 356° (N) 2,868 7.5 -23.6°
Sets 00:44:59 0° 350° (N) 4,148 8.4 -23.5°
